Project,Study,Ord_Occ,Event_Num,Cast_ID,Date_Time_UTC,Date_Time_PST,Lat_Dec,Lon_Dec,Sta_ID,Line,Sta,Depth,Pressure,PrQ,Temp1,Temp1Q,Temp2,Temp2Q,TempAve,Salt1,Salt1Q,Salt1_Corr,Salt2,Salt2Q,Salt2_Corr,SaltAve_Corr,Ox1,Ox1Q,Ox1_CruiseCorr,Ox1_StaCorr,Ox2,Ox2Q,Ox2_CruiseCorr,Ox2_StaCorr,OxAve_StaCorr,Ox1uM,Ox1uM_CruiseCorr,Ox1uM_StaCorr,Ox2uM,Ox2uM_CruiseCorr,Ox2uM_StaCorr,OxAveuM_StaCorr,FluorV,FluorQ,EstChl_CruiseCorr,EstChl_StaCorr,ISUSV,ISUSQ,EstNO3_CruiseCorr,EstNO3_StaCorr,SigThetaTS1,SigThetaTS1Q,SigThetaTS2,SigThetaTS2Q,BAT,XMiss,TransQ,pH,pHQ,SPAR,SPARQ,PAR,PARQ,PoT1,PoT2,DynHt,SVA,OxSat1,OxSat2,BTL_Depth,BTL_Temp,SaltB,OxB,OxBuM,Chl-a,Phaeo,NO3,NO2,NH4,PO4,SIL
CalCOFI,2007SR,031,32,2007_031d,19-Jul-2020 06:02:51,18-Jul-2020 22:02:51,33.41740,-117.90282,090.0 030.0,090.0,030.0,2.000,2.014,,20.5884,,20.5869,,20.5877,33.6506,,33.6508,33.6510,,33.6526,33.6517,5.9387,,6.1876,6.1982,4.2302,,6.1576,4.7469,5.4726,259.115,270.0020,223.9763,184.570,468.2135,176.0199,199.9981,0.1336,,1.1474,0.9203,-99.0,,-99.0,-99.0,23.5775,,23.5782,,0.9393,79.0717,,8.238,,1.9043E+00,,6.1376E-01,,20.5881,20.5865,0.0048,,115.080,81.971,2,20.430,33.6515,6.215,271.28,1.052,0.146,0.0,0.00,0.00,0.04,1.09
CalCOFI,2007SR,031,32,2007_031d,19-Jul-2020 06:02:59,18-Jul-2020 22:02:59,33.41740,-117.90282,090.0 030.0,090.0,030.0,3.000,3.021,,20.5878,,20.5886,,20.5882,33.6507,,33.6509,33.6510,,33.6526,33.6518,5.9428,,6.1919,6.2026,4.2335,,6.1654,4.7543,5.4785,259.294,270.1889,224.1178,184.713,468.6513,176.2799,200.1989,0.1240,,1.0342,0.8053,-99.0,,-99.0,-99.0,23.5777,,23.5778,,0.9380,79.0966,,8.238,,1.9043E+00,,5.3435E-01,,20.5873,20.5880,0.0113,,115.159,82.037,,,,,,,,,,,,
CalCOFI,2007SR,031,32,2007_031d,19-Jul-2020 06:03:03,18-Jul-2020 22:03:03,33.41740,-117.90282,090.0 030.0,090.0,030.0,4.000,4.029,,20.5911,,20.5911,,20.5911,33.6506,,33.6508,33.6510,,33.6526,33.6517,5.9326,,6.1813,6.1918,4.2375,,6.1750,4.7634,5.4776,258.849,269.7244,223.7662,184.887,467.5629,176.5963,200.1813,0.1250,,1.0460,0.8170,-99.0,,-99.0,-99.0,23.5769,,23.5772,,0.9480,78.8989,,8.238,,1.9043E+00,,4.9709E-01,,20.5903,20.5903,0.0156,,114.968,82.118,,,,,,,,,,,,
CalCOFI,2007SR,031,32,2007_031d,19-Jul-2020 06:03:05,18-Jul-2020 22:03:05,33.41740,-117.90282,090.0 030.0,090.0,030.0,5.000,5.036,,20.5912,,20.5911,,20.5912,33.6506,,33.6508,33.6510,,33.6526,33.6517,5.9365,,6.1853,6.1959,4.2378,,6.1757,4.7641,5.4800,259.017,269.8997,223.8989,184.902,467.9738,176.6235,200.2612,0.1435,,1.2643,1.0454,-99.0,,-99.0,-99.0,23.5769,,23.5772,,0.9413,79.0307,,8.238,,1.9043E+00,,4.6382E-01,,20.5902,20.5902,0.0199,,115.043,82.125,,,,,,,,,,,,
CalCOFI,2007SR,031,32,2007_031d,19-Jul-2020 06:03:06,18-Jul-2020 22:03:06,33.41740,-117.90282,090.0 030.0,090.0,030.0,6.000,6.043,,20.5906,,20.5904,,20.5905,33.6506,,33.6508,33.6509,,33.6525,33.6517,5.9463,,6.1956,6.2062,4.2384,,6.1771,4.7654,5.4858,259.444,270.3455,224.2362,184.925,469.0182,176.6654,200.4508,0.1457,,1.2902,1.0741,-99.0,,-99.0,-99.0,23.5771,,23.5774,,0.9404,79.0484,,8.238,,1.9043E+00,,4.4323E-01,,20.5894,20.5892,0.0243,,115.231,82.134,,,,,,,,,,,,
CalCOFI,2007SR,031,32,2007_031d,19-Jul-2020 06:03:08,18-Jul-2020 22:03:08,33.41740,-117.90282,090.0 030.0,090.0,030.0,7.000,7.050,,20.5913,,20.5912,,20.5913,33.6507,,33.6509,33.6511,,33.6527,33.6518,5.9451,,6.1943,6.2050,4.2407,,6.1826,4.7706,5.4878,259.393,270.2923,224.1960,185.028,468.8934,176.8526,200.5243,0.1318,,1.1262,0.8982,-99.0,,-99.0,-99.0,23.5770,,23.5773,,0.9392,79.0741,,8.238,,1.9043E+00,,4.2396E-01,,20.5900,20.5899,0.0286,,115.210,82.181,,,,,,,,,,,,
CalCOFI,2007SR,031,32,2007_031d,19-Jul-2020 06:03:11,18-Jul-2020 22:03:11,33.41740,-117.90282,090.0 030.0,090.0,030.0,8.000,8.057,,20.5948,,20.5937,,20.5943,33.6506,,33.6508,33.6511,,33.6527,33.6518,5.9414,,6.1905,6.2011,4.2420,,6.1857,4.7736,5.4874,259.230,270.1221,224.0672,185.084,468.4948,176.9545,200.5109,0.1226,,1.0177,0.7891,-99.0,,-99.0,-99.0,23.5761,,23.5767,,0.9530,78.8006,,8.238,,1.9043E+00,,4.0330E-01,,20.5932,20.5922,0.0330,,115.145,82.209,,,,,,,,,,,,
CalCOFI,2007SR,031,32,2007_031d,19-Jul-2020 06:03:13,18-Jul-2020 22:03:13,33.41740,-117.90282,090.0 030.0,090.0,030.0,9.000,9.064,,20.5955,,20.5953,,20.5954,33.6506,,33.6508,33.6510,,33.6526,33.6517,5.9412,,6.1903,6.2009,4.2437,,6.1898,4.7774,5.4892,259.225,270.1169,224.0632,185.160,468.4825,177.0926,200.5779,0.1280,,1.0814,0.8524,-99.0,,-99.0,-99.0,23.5760,,23.5763,,0.9362,79.1334,,8.238,,1.9043E+00,,3.9119E-01,,20.5938,20.5936,0.0373,,115.144,82.245,,,,,,,,,,,,
CalCOFI,2007SR,031,32,2007_031d,19-Jul-2020 06:03:14,18-Jul-2020 22:03:14,33.41740,-117.90282,090.0 030.0,090.0,030.0,10.000,10.072,,20.5957,,20.5952,,20.5955,33.6506,,33.6508,33.6510,,33.6526,33.6517,5.9392,,6.1882,6.1988,4.2471,,6.1979,4.7851,5.4920,259.134,270.0219,223.9913,185.307,468.2600,177.3599,200.6756,0.1419,,1.2454,1.0247,-99.0,,-99.0,-99.0,23.5760,,23.5764,,0.9360,79.1360,,8.238,,1.9043E+00,,3.7689E-01,,20.5938,20.5933,0.0416,,115.104,82.311,,,,,,,,,,,,
CalCOFI,2007SR,031,32,2007_031d,19-Jul-2020 06:03:16,18-Jul-2020 22:03:16,33.41740,-117.90282,090.0 030.0,090.0,030.0,11.000,11.079,,20.5950,,20.5948,,20.5949,33.6506,,33.6508,33.6510,,33.6526,33.6517,5.9410,,6.1901,6.2007,4.2480,,6.2001,4.7871,5.4939,259.213,270.1044,224.0538,185.347,468.4532,177.4326,200.7432,0.1319,,1.1274,0.8994,-99.0,,-99.0,-99.0,23.5762,,23.5765,,0.9436,78.9853,,8.238,,1.9043E+00,,3.6051E-01,,20.5929,20.5927,0.0460,,115.138,82.328,11,20.374,33.6482,, ,,,,,,,
CalCOFI,2007SR,031,32,2007_031d,19-Jul-2020 06:03:19,18-Jul-2020 22:03:19,33.41740,-117.90282,090.0 030.0,090.0,030.0,12.000,12.086,,20.5944,,20.5943,,20.5944,33.6506,,33.6508,33.6510,,33.6526,33.6517,5.9330,,6.1817,6.1922,4.2503,,6.2055,4.7923,5.4923,258.866,269.7421,223.7796,185.447,467.6045,177.6145,200.6971,0.1244,,1.0389,0.8100,-99.0,,-99.0,-99.0,23.5764,,23.5768,,0.9370,79.1171,,8.238,,1.9043E+00,,3.4290E-01,,20.5921,20.5921,0.0503,,114.982,82.371,12,20.284,33.6500,6.155,268.65,0.932,0.152,0.0,0.00,0.00,0.05,1.01
CalCOFI,2007SR,031,32,2007_031d,19-Jul-2020 06:03:21,18-Jul-2020 22:03:21,33.41740,-117.90282,090.0 030.0,090.0,030.0,13.000,13.093,,20.5919,,20.5901,,20.5910,33.6503,,33.6505,33.6503,,33.6519,33.6512,5.9185,,6.1665,6.1769,4.2537,,6.2137,4.8000,5.4885,258.231,269.0792,223.2780,185.596,466.0514,177.8854,200.5817,0.1325,,1.1345,0.9068,-99.0,,-99.0,-99.0,23.5769,,23.5773,,0.9361,79.1340,,8.238,,1.9043E+00,,3.3175E-01,,20.5894,20.5877,0.0547,,114.695,82.431,,,,,,,,,,,,
CalCOFI,2007SR,031,32,2007_031d,19-Jul-2020 06:03:23,18-Jul-2020 22:03:23,33.41740,-117.90282,090.0 030.0,090.0,030.0,14.000,14.100,,20.5122,,20.4981,,20.5052,33.6457,,33.6459,33.6452,,33.6468,33.6464,5.8999,,6.1471,6.1573,4.2675,,6.2466,4.8312,5.4943,257.417,268.2295,222.6350,186.191,464.0604,178.9673,200.8012,0.1372,,1.1899,0.9650,-99.0,,-99.0,-99.0,23.5946,,23.5980,,0.9383,79.0900,,8.237,,1.9043E+00,,3.2167E-01,,20.5096,20.4954,0.0590,,114.167,82.556,,,,,,,,,,,,
CalCOFI,2007SR,031,32,2007_031d,19-Jul-2020 06:03:25,18-Jul-2020 22:03:25,33.41740,-117.90282,090.0 030.0,090.0,030.0,15.000,15.108,,20.2801,,20.2713,,20.2757,33.6409,,33.6411,33.6392,,33.6408,33.6410,5.8251,,6.0689,6.0785,4.2917,,6.3044,4.8859,5.4822,254.138,264.8066,220.0448,187.240,456.0405,180.8746,200.4597,0.1493,,1.3327,1.1219,-99.0,,-99.0,-99.0,23.6524,,23.6535,,0.9311,79.2339,,8.235,,1.9043E+00,,3.0604E-01,,20.2774,20.2685,0.0633,,112.240,82.679,,,,,,,,,,,,
CalCOFI,2007SR,031,32,2007_031d,19-Jul-2020 06:03:27,18-Jul-2020 22:03:27,33.41740,-117.90282,090.0 030.0,090.0,030.0,16.000,16.115,,19.9492,,19.9602,,19.9547,33.6415,,33.6417,33.6376,,33.6392,33.6405,5.6635,,5.9001,5.9081,4.3406,,6.4211,4.9964,5.4523,247.066,257.4241,214.4583,189.359,438.7434,184.7275,199.5929,0.1449,,1.2808,1.0637,-99.0,,-99.0,-99.0,23.7399,,23.7339,,0.9239,79.3762,,8.229,,1.9043E+00,,2.9835E-01,,19.9462,19.9572,0.0675,,108.465,83.145,,,,,,,,,,,,
CalCOFI,2007SR,031,32,2007_031d,19-Jul-2020 06:03:29,18-Jul-2020 22:03:29,33.41740,-117.90282,090.0 030.0,090.0,030.0,17.000,17.122,,19.2007,,19.1578,,19.1793,33.6247,,33.6249,33.6148,,33.6164,33.6207,5.5927,,5.8261,5.8334,4.4163,,6.6018,5.1675,5.5005,243.936,254.1567,211.9858,192.623,431.0878,190.6622,201.3240,0.1685,,1.5596,1.3915,-99.0,,-99.0,-99.0,23.9198,,23.9231,,0.8965,79.9212,,8.218,,1.9043E+00,,2.8285E-01,,19.1976,19.1548,0.0716,,105.630,83.333,,,,,,,,,,,,
CalCOFI,2007SR,031,32,2007_031d,19-Jul-2020 06:03:31,18-Jul-2020 22:03:31,33.41740,-117.90282,090.0 030.0,090.0,030.0,18.000,18.129,,18.4980,,18.4819,,18.4900,33.6278,,33.6280,33.6219,,33.6235,33.6258,5.5798,,5.8126,5.8198,4.4965,,6.7933,5.3488,5.5843,243.330,253.5241,211.5071,196.088,429.6056,196.9625,204.2348,0.1851,,1.7558,1.6450,-99.0,,-99.0,-99.0,24.0994,,24.0989,,0.8713,80.4275,,8.206,,1.9043E+00,,2.7699E-01,,18.4948,18.4787,0.0755,,104.007,83.787,,,,,,,,,,,,
CalCOFI,2007SR,031,32,2007_031d,19-Jul-2020 06:03:32,18-Jul-2020 22:03:32,33.41740,-117.90282,090.0 030.0,090.0,030.0,19.000,19.136,,17.5964,,17.4695,,17.5330,33.5458,,33.5460,33.5282,,33.5298,33.5379,5.7197,,5.9588,5.9673,4.5689,,6.9661,5.5125,5.7399,249.395,259.8553,216.2981,199.211,444.4398,202.6409,209.4695,0.2129,,2.0849,2.1120,-99.0,,-99.0,-99.0,24.2562,,24.2732,,0.8510,80.8353,,8.200,,1.9043E+00,,2.7789E-01,,17.5932,17.4663,0.0793,,104.751,83.463,,,,,,,,,,,,
CalCOFI,2007SR,031,32,2007_031d,19-Jul-2020 06:03:35,18-Jul-2020 22:03:35,33.41740,-117.90282,090.0 030.0,090.0,030.0,20.000,20.144,,16.5895,,16.5770,,16.5833,33.5372,,33.5374,33.5340,,33.5356,33.5365,5.7331,,5.9728,5.9815,4.6420,,7.1406,5.6777,5.8296,249.921,260.4044,216.7136,202.357,445.7263,208.3611,212.5374,0.1630,,1.4946,1.3116,-99.0,,-99.0,-99.0,24.4880,,24.4885,,0.8203,81.4591,,8.190,,1.9043E+00,,2.6778E-01,,16.5863,16.5738,0.0829,,102.983,83.359,,,,,,,,,,,,
CalCOFI,2007SR,031,32,2007_031d,19-Jul-2020 06:03:37,18-Jul-2020 22:03:37,33.41740,-117.90282,090.0 030.0,090.0,030.0,21.000,21.151,,16.2829,,16.2648,,16.2739,33.5355,,33.5357,33.5330,,33.5346,33.5352,5.6381,,5.8736,5.8813,4.6885,,7.2517,5.7828,5.8321,245.764,256.0649,213.4298,204.368,435.5589,212.0176,212.7237,0.1594,,1.4520,1.2605,-99.0,,-99.0,-99.0,24.5575,,24.5597,,0.8043,81.7855,,8.180,,1.9043E+00,,2.6289E-01,,16.2796,16.2615,0.0863,,100.672,83.684,,,,,,,,,,,,
CalCOFI,2007SR,031,32,2007_031d,19-Jul-2020 06:03:39,18-Jul-2020 22:03:39,33.41740,-117.90282,090.0 030.0,090.0,030.0,22.000,22.158,,15.3795,,15.3197,,15.3496,33.4574,,33.4576,33.4506,,33.4522,33.4549,5.6921,,5.9300,5.9382,4.7658,,7.4362,5.9575,5.9479,248.083,258.4857,215.2617,207.711,441.2308,218.0960,216.6789,0.1439,,1.2690,1.0506,-99.0,,-99.0,-99.0,24.7004,,24.7083,,0.7814,82.2539,,8.175,,1.9043E+00,,2.5325E-01,,15.3762,15.3164,0.0897,,99.799,83.455,22,14.549,33.4864,6.015,262.58,0.903,0.336,0.19,0.035,0.20,0.30,0.92
CalCOFI,2007SR,031,32,2007_031d,19-Jul-2020 06:03:41,18-Jul-2020 22:03:41,33.41740,-117.90282,090.0 030.0,090.0,030.0,23.000,23.165,,14.8336,,14.7877,,14.8107,33.4286,,33.4288,33.4228,,33.4244,33.4266,5.6010,,5.8348,5.8422,4.7999,,7.5176,6.0346,5.9384,244.088,254.3154,212.1059,209.176,431.4596,220.7598,216.4329,0.1441,,1.2713,1.0532,-99.0,,-99.0,-99.0,24.7972,,24.8027,,0.7603,82.6896,,8.167,,1.9043E+00,,2.3426E-01,,14.8302,14.7843,0.0929,,97.124,83.152,,,,,,,,,,,,
CalCOFI,2007SR,031,32,2007_031d,19-Jul-2020 06:03:43,18-Jul-2020 22:03:43,33.41740,-117.90282,090.0 030.0,090.0,030.0,24.000,24.173,,14.5862,,14.5719,,14.5791,33.4577,,33.4579,33.4646,,33.4662,33.4621,5.5434,,5.7746,5.7814,4.8030,,7.5250,6.0416,5.9115,241.559,251.6753,210.1081,209.297,425.2740,220.9798,215.5440,0.1570,,1.4237,1.2269,-99.0,,-99.0,-99.0,24.8728,,24.8812,,0.7574,82.7494,,8.154,,1.9043E+00,,2.0119E-01,,14.5827,14.5684,0.0960,,95.666,82.869,,,,,,,,,,,,
CalCOFI,2007SR,031,32,2007_031d,19-Jul-2020 06:03:45,18-Jul-2020 22:03:45,33.41740,-117.90282,090.0 030.0,090.0,030.0,25.000,25.180,,14.5055,,14.5078,,14.5067,33.5119,,33.5121,33.5150,,33.5166,33.5144,5.3712,,5.5947,5.5999,4.7925,,7.4999,6.0179,5.8089,234.044,243.8304,204.1717,208.826,406.8934,220.1234,212.1476,0.1646,,1.5135,1.3347,-99.0,,-99.0,-99.0,24.9318,,24.9337,,0.7645,82.6029,,8.137,,1.9043E+00,,1.6017E-01,,14.5019,14.5041,0.0991,,92.576,82.606,,,,,,,,,,,,
CalCOFI,2007SR,031,32,2007_031d,19-Jul-2020 06:03:47,18-Jul-2020 22:03:47,33.41740,-117.90282,090.0 030.0,090.0,030.0,26.000,26.187,,14.3917,,14.3730,,14.3824,33.5113,,33.5115,33.5107,,33.5123,33.5119,5.1751,,5.3898,5.3931,4.7929,,7.5009,6.0188,5.7060,225.494,234.9051,197.4177,208.839,385.9813,220.1470,208.7824,0.1518,,1.3623,1.1555,-99.0,,-99.0,-99.0,24.9554,,24.9589,,0.7525,82.8519,,8.126,,1.9043E+00,,1.2408E-01,,14.3879,14.3693,0.1021,,88.993,82.387,,,,,,,,,,,,
CalCOFI,2007SR,031,32,2007_031d,19-Jul-2020 06:03:49,18-Jul-2020 22:03:49,33.41740,-117.90282,090.0 030.0,090.0,030.0,27.000,27.195,,14.0265,,14.0109,,14.0187,33.5097,,33.5099,33.5128,,33.5144,33.5122,5.0444,,5.2532,5.2553,4.8123,,7.5472,6.0626,5.6590,219.783,228.9434,192.9064,209.670,372.0130,221.6580,207.2822,0.1328,,1.1380,0.9104,-99.0,,-99.0,-99.0,25.0308,,25.0365,,0.7407,83.0952,,8.112,,1.9043E+00,,7.3697E-02,,14.0227,14.0070,0.1051,,86.105,82.119,,,,,,,,,,,,
CalCOFI,2007SR,031,32,2007_031d,19-Jul-2020 06:03:51,18-Jul-2020 22:03:51,33.41740,-117.90282,090.0 030.0,090.0,030.0,28.000,28.202,,13.7376,,13.6985,,13.7181,33.5117,,33.5119,33.5119,,33.5135,33.5127,5.0131,,5.2205,5.2223,4.8152,,7.5541,6.0692,5.6458,218.404,227.5038,191.8170,209.783,368.6402,221.8634,206.8402,0.1326,,1.1356,0.9080,-99.0,,-99.0,-99.0,25.0921,,25.1002,,0.7185,83.5577,,8.097,,1.9043E+00,,1.5808E-02,,13.7336,13.6945,0.1080,,85.070,81.648,,,,,,,,,,,,
CalCOFI,2007SR,031,32,2007_031d,19-Jul-2020 06:03:53,18-Jul-2020 22:03:53,33.41740,-117.90282,090.0 030.0,090.0,030.0,29.000,29.209,,13.5245,,13.5101,,13.5173,33.5083,,33.5085,33.5114,,33.5130,33.5108,4.9742,,5.1798,5.1813,4.8051,,7.5300,6.0464,5.6139,216.703,225.7282,190.4733,209.335,364.4798,221.0489,205.7611,0.0986,,0.7349,0.5318,-99.0,,-99.0,-99.0,25.1329,,25.1383,,0.7087,83.7632,,8.083,,1.9043E+00,,3.0465E-04,,13.5205,13.5061,0.1109,,84.043,81.163,,,,,,,,,,,,
CalCOFI,2007SR,031,32,2007_031d,19-Jul-2020 06:03:55,18-Jul-2020 22:03:55,33.41740,-117.90282,090.0 030.0,090.0,030.0,30.000,30.216,,13.3950,,13.3854,,13.3902,33.5076,,33.5078,33.5121,,33.5137,33.5108,4.9122,,5.1151,5.1159,4.7813,,7.4732,5.9926,5.5543,213.996,222.9023,188.3350,208.290,357.8588,219.1488,203.7419,0.1024,,0.7796,0.5699,-99.0,,-99.0,-99.0,25.1587,,25.1641,,0.6986,83.9752,,8.071,,1.9043E+00,,1.0000E-12,,13.3909,13.3812,0.1137,,82.775,80.554,,,,,,,,,,,,
CalCOFI,2007SR,031,32,2007_031d,19-Jul-2020 06:03:57,18-Jul-2020 22:03:57,33.41740,-117.90282,090.0 030.0,090.0,030.0,31.000,31.224,,13.3539,,13.3507,,13.3523,33.5241,,33.5243,33.5283,,33.5299,33.5271,4.8475,,5.0475,5.0477,4.7566,,7.4142,5.9367,5.4922,211.174,219.9564,186.1058,207.211,350.9566,217.1869,201.6464,0.0938,,0.6783,0.4851,-99.0,,-99.0,-99.0,25.1797,,25.1836,,0.7083,83.7731,,8.060,,1.9043E+00,,1.0000E-12,,13.3496,13.3465,0.1165,,81.625,80.090,,,,,,,,,,,,
CalCOFI,2007SR,031,32,2007_031d,19-Jul-2020 06:03:59,18-Jul-2020 22:03:59,33.41740,-117.90282,090.0 030.0,090.0,030.0,32.000,32.231,,13.2603,,13.2530,,13.2567,33.5276,,33.5278,33.5293,,33.5309,33.5294,4.7507,,4.9463,4.9456,4.7297,,7.3500,5.8759,5.4108,206.950,215.5470,182.7690,206.037,340.6253,215.0523,198.9107,0.0980,,0.7278,0.5259,-99.0,,-99.0,-99.0,25.2013,,25.2041,,0.6945,84.0615,,8.050,,1.9043E+00,,1.0000E-12,,13.2559,13.2486,0.1193,,79.842,79.479,32,13.031,33.5601,,208.08,0.396,0.207,6.49,0.122,0.45,0.82,6.49
CalCOFI,2007SR,031,32,2007_031d,19-Jul-2020 06:04:01,18-Jul-2020 22:04:01,33.41740,-117.90282,090.0 030.0,090.0,030.0,33.000,33.238,,13.1283,,13.1183,,13.1233,33.5212,,33.5214,33.5220,,33.5236,33.5225,4.5675,,4.7549,4.7525,4.7151,,7.3152,5.8429,5.2977,198.967,207.2136,176.4629,205.394,321.1001,213.8831,195.1730,0.0844,,0.5677,0.3983,-99.0,,-99.0,-99.0,25.2228,,25.2254,,0.6900,84.1567,,8.042,,1.9043E+00,,1.0000E-12,,13.1238,13.1138,0.1221,,76.553,79.009,,,,,,,,,,,,
CalCOFI,2007SR,031,32,2007_031d,19-Jul-2020 06:04:03,18-Jul-2020 22:04:03,33.41740,-117.90282,090.0 030.0,090.0,030.0,34.000,34.245,,13.0054,,12.9873,,12.9964,33.5328,,33.5330,33.5387,,33.5403,33.5367,4.4730,,4.6561,4.6528,4.7018,,7.2834,5.8129,5.2329,194.843,202.9085,173.2052,204.809,311.0133,212.8195,193.0124,0.0841,,0.5642,0.3956,-99.0,,-99.0,-99.0,25.2562,,25.2643,,0.6892,84.1720,,8.032,,1.9043E+00,,1.0000E-12,,13.0008,12.9827,0.1248,,74.784,78.583,,,,,,,,,,,,
CalCOFI,2007SR,031,32,2007_031d,19-Jul-2020 06:04:05,18-Jul-2020 22:04:05,33.41740,-117.90282,090.0 030.0,090.0,030.0,35.000,35.253,,12.8462,,12.8297,,12.8380,33.5569,,33.5571,33.5617,,33.5633,33.5602,4.4026,,4.5826,4.5786,4.6946,,7.2662,5.7966,5.1876,191.765,199.6954,170.7738,204.487,303.4850,212.2340,191.5039,0.0775,,0.4865,0.3384,-99.0,,-99.0,-99.0,25.3063,,25.3133,,0.6856,84.2484,,8.019,,1.9043E+00,,1.0000E-12,,12.8415,12.8249,0.1275,,73.376,78.219,,,,,,,,,,,,
CalCOFI,2007SR,031,32,2007_031d,19-Jul-2020 06:04:07,18-Jul-2020 22:04:07,33.41740,-117.90282,090.0 030.0,090.0,030.0,36.000,36.260,,12.7375,,12.7308,,12.7342,33.5631,,33.5633,33.5658,,33.5674,33.5654,4.3259,,4.5024,4.4977,4.6680,,7.2027,5.7365,5.1171,188.420,196.2035,168.1314,203.321,295.3036,210.1139,189.1227,0.0730,,0.4336,0.3011,-99.0,,-99.0,-99.0,25.3325,,25.3359,,0.6853,84.2538,,8.007,,1.9043E+00,,1.0000E-12,,12.7327,12.7260,0.1302,,71.938,77.618,,,,,,,,,,,,
CalCOFI,2007SR,031,32,2007_031d,19-Jul-2020 06:04:09,18-Jul-2020 22:04:09,33.41740,-117.90282,090.0 030.0,090.0,030.0,37.000,37.267,,12.5702,,12.5688,,12.5695,33.5746,,33.5748,33.5776,,33.5792,33.5770,4.3218,,4.4981,4.4934,4.6377,,7.1304,5.6680,5.0807,188.237,196.0125,167.9869,201.995,294.8560,207.7029,187.8449,0.0691,,0.3877,0.2699,-99.0,,-99.0,-99.0,25.3740,,25.3766,,0.6855,84.2507,,7.994,,1.9043E+00,,1.0000E-12,,12.5652,12.5639,0.1329,,71.627,76.862,,,,,,,,,,,,
CalCOFI,2007SR,031,32,2007_031d,19-Jul-2020 06:04:11,18-Jul-2020 22:04:11,33.41740,-117.90282,090.0 030.0,090.0,030.0,38.000,38.275,,12.5485,,12.5481,,12.5483,33.5774,,33.5776,33.5807,,33.5823,33.5800,4.3117,,4.4876,4.4828,4.5983,,7.0363,5.5789,5.0309,187.796,195.5521,167.6385,200.277,293.7774,204.5791,186.1088,0.0709,,0.4089,0.2841,-99.0,,-99.0,-99.0,25.3804,,25.3830,,0.6793,84.3822,,7.984,,1.9043E+00,,1.0000E-12,,12.5435,12.5431,0.1355,,71.429,76.177,,,,,,,,,,,,
CalCOFI,2007SR,031,32,2007_031d,19-Jul-2020 06:04:13,18-Jul-2020 22:04:13,33.41740,-117.90282,090.0 030.0,090.0,030.0,39.000,39.282,,12.5493,,12.5470,,12.5482,33.5792,,33.5794,33.5824,,33.5840,33.5817,4.2932,,4.4683,4.4633,4.5620,,6.9497,5.4969,4.9801,186.988,194.7087,167.0002,198.696,291.8011,201.7045,184.3524,0.0724,,0.4265,0.2962,-99.0,,-99.0,-99.0,25.3817,,25.3846,,0.6760,84.4520,,7.979,,1.9043E+00,,1.0000E-12,,12.5441,12.5419,0.1381,,71.124,75.575,,,,,,,,,,,,
CalCOFI,2007SR,031,32,2007_031d,19-Jul-2020 06:04:15,18-Jul-2020 22:04:15,33.41740,-117.90282,090.0 030.0,090.0,030.0,40.000,40.289,,12.5438,,12.5394,,12.5416,33.5805,,33.5807,33.5832,,33.5848,33.5828,4.2602,,4.4338,4.4285,4.5442,,6.9072,5.4566,4.9426,185.550,193.2075,165.8643,197.920,288.2840,200.2935,183.0789,0.0758,,0.4665,0.3241,-99.0,,-99.0,-99.0,25.3837,,25.3867,,0.6756,84.4590,,7.975,,1.9043E+00,,1.0000E-12,,12.5385,12.5341,0.1407,,70.569,75.268,,,,,,,,,,,,
CalCOFI,2007SR,031,32,2007_031d,19-Jul-2020 06:04:17,18-Jul-2020 22:04:17,33.41740,-117.90282,090.0 030.0,090.0,030.0,41.000,41.297,,12.5145,,12.5128,,12.5137,33.5822,,33.5824,33.5853,,33.5869,33.5847,4.1954,,4.3661,4.3601,4.5244,,6.8599,5.4119,4.8860,182.729,190.2627,163.6359,197.055,281.3842,198.7207,181.1783,0.0755,,0.4630,0.3216,-99.0,,-99.0,-99.0,25.3908,,25.3935,,0.6756,84.4584,,7.971,,1.9043E+00,,1.0000E-12,,12.5091,12.5074,0.1433,,69.455,74.899,,,,,,,,,,,,
CalCOFI,2007SR,031,32,2007_031d,19-Jul-2020 06:04:19,18-Jul-2020 22:04:19,33.41740,-117.90282,090.0 030.0,090.0,030.0,42.000,42.304,,12.4402,,12.4353,,12.4378,33.5867,,33.5869,33.5886,,33.5902,33.5886,4.1403,,4.3085,4.3020,4.5050,,6.8136,5.3680,4.8350,180.325,187.7532,161.7368,196.207,275.5044,197.1789,179.4579,0.0697,,0.3948,0.2746,-99.0,,-99.0,-99.0,25.4086,,25.4110,,0.6762,84.4469,,7.965,,1.9043E+00,,1.0000E-12,,12.4347,12.4298,0.1459,,68.439,74.460,42,12.245,33.5906,,186.49,0.350,0.396,9.97,0.095,0.00,1.01,9.59
CalCOFI,2007SR,031,32,2007_031d,19-Jul-2020 06:04:21,18-Jul-2020 22:04:21,33.41740,-117.90282,090.0 030.0,090.0,030.0,43.000,43.311,,12.2755,,12.2717,,12.2736,33.5866,,33.5868,33.5884,,33.5900,33.5884,4.1278,,4.2954,4.2889,4.4852,,6.7663,5.3233,4.8061,179.774,187.1780,161.3016,195.340,274.1567,195.6024,178.4520,0.0710,,0.4100,0.2849,-99.0,,-99.0,-99.0,25.4402,,25.4423,,0.6751,84.4708,,7.959,,1.9043E+00,,1.0000E-12,,12.2699,12.2661,0.1485,,67.997,73.880,,,,,,,,,,,,
CalCOFI,2007SR,031,32,2007_031d,19-Jul-2020 06:04:23,18-Jul-2020 22:04:23,33.41740,-117.90282,090.0 030.0,090.0,030.0,44.000,44.319,,12.2192,,12.2157,,12.2175,33.5901,,33.5903,33.5927,,33.5943,33.5923,4.1103,,4.2772,4.2704,4.4662,,6.7210,5.2803,4.7754,179.010,186.3804,160.6981,194.511,272.2881,194.0951,177.3966,0.0698,,0.3959,0.2754,-99.0,,-99.0,-99.0,25.4537,,25.4564,,0.6767,84.4370,,7.954,,1.9043E+00,,1.0000E-12,,12.2134,12.2100,0.1510,,67.631,73.483,,,,,,,,,,,,
CalCOFI,2007SR,031,32,2007_031d,19-Jul-2020 06:04:25,18-Jul-2020 22:04:25,33.41740,-117.90282,090.0 030.0,090.0,030.0,45.000,45.326,,12.1990,,12.1964,,12.1977,33.5914,,33.5916,33.5938,,33.5954,33.5935,4.0878,,4.2536,4.2467,4.4513,,6.6854,5.2467,4.7467,178.028,185.3553,159.9223,193.858,269.8862,192.9078,176.4151,0.0744,,0.4500,0.3125,-99.0,,-99.0,-99.0,25.4586,,25.4609,,0.6766,84.4382,,7.949,,1.9043E+00,,1.0000E-12,,12.1931,12.1906,0.1536,,67.233,73.208,,,,,,,,,,,,
CalCOFI,2007SR,031,32,2007_031d,19-Jul-2020 06:04:27,18-Jul-2020 22:04:27,33.41740,-117.90282,090.0 030.0,090.0,030.0,46.000,46.333,,12.1679,,12.1652,,12.1666,33.5933,,33.5935,33.5955,,33.5971,33.5953,4.0480,,4.2121,4.2047,4.4262,,6.6255,5.1899,4.6973,176.294,183.5452,158.5526,192.765,265.6451,190.9204,174.7365,0.0706,,0.4053,0.2817,-99.0,,-99.0,-99.0,25.4660,,25.4682,,0.6747,84.4796,,7.945,,1.9043E+00,,1.0000E-12,,12.1619,12.1592,0.1561,,66.536,72.749,,,,,,,,,,,,
CalCOFI,2007SR,031,32,2007_031d,19-Jul-2020 06:04:29,18-Jul-2020 22:04:29,33.41740,-117.90282,090.0 030.0,090.0,030.0,47.000,47.341,,12.0911,,12.0845,,12.0878,33.5920,,33.5922,33.5936,,33.5952,33.5937,4.0214,,4.1843,4.1767,4.4107,,6.5885,5.1549,4.6658,175.132,182.3322,157.6347,192.088,262.8030,189.6895,173.6621,0.0680,,0.3748,0.2613,-99.0,,-99.0,-99.0,25.4796,,25.4820,,0.6803,84.3591,,7.941,,1.9043E+00,,1.0000E-12,,12.0851,12.0784,0.1587,,65.991,72.371,,,,,,,,,,,,
CalCOFI,2007SR,031,32,2007_031d,19-Jul-2020 06:04:31,18-Jul-2020 22:04:31,33.41740,-117.90282,090.0 030.0,090.0,030.0,48.000,48.348,,11.9789,,11.9714,,11.9752,33.5916,,33.5918,33.5930,,33.5946,33.5932,3.9892,,4.1506,4.1427,4.3994,,6.5615,5.1293,4.6360,173.727,180.8655,156.5248,191.589,259.3666,188.7822,172.6535,0.0684,,0.3795,0.2644,-99.0,,-99.0,-99.0,25.5004,,25.5029,,0.6740,84.4934,,7.937,,1.9043E+00,,1.0000E-12,,11.9727,11.9653,0.1612,,65.309,72.014,,,,,,,,,,,,
CalCOFI,2007SR,031,32,2007_031d,19-Jul-2020 06:04:33,18-Jul-2020 22:04:33,33.41740,-117.90282,090.0 030.0,090.0,030.0,49.000,49.356,,11.9154,,11.9157,,11.9156,33.5995,,33.5997,33.6026,,33.6042,33.6020,3.9086,,4.0664,4.0577,4.3757,,6.5049,5.0758,4.5668,170.216,177.2004,153.7513,190.558,250.7792,186.9076,170.3295,0.0653,,0.3430,0.2405,-99.0,,-99.0,-99.0,25.5185,,25.5209,,0.6708,84.5611,,7.932,,1.9043E+00,,1.0000E-12,,11.9091,11.9095,0.1637,,63.908,71.548,,,,,,,,,,,,
CalCOFI,2007SR,031,32,2007_031d,19-Jul-2020 06:04:35,18-Jul-2020 22:04:35,33.41740,-117.90282,090.0 030.0,090.0,030.0,50.000,50.363,,11.8639,,11.8589,,11.8614,33.6085,,33.6087,33.6103,,33.6119,33.6103,3.8923,,4.0494,4.0406,4.3623,,6.4729,5.0455,4.5431,169.500,176.4530,153.1857,189.970,249.0280,185.8384,169.5121,0.0664,,0.3560,0.2489,-99.0,,-99.0,-99.0,25.5352,,25.5375,,0.6701,84.5760,,7.926,,1.9043E+00,,1.0000E-12,,11.8576,11.8525,0.1661,,63.575,71.247,,,,,,,,,,,,